Location: *
(50.8160°S, 176.0219°W)
Time: 00:55:05
(UTC+00:00)

Cosmos 1315 Rocket - Pass Details

Date: 19 May 2026
Orbit: 491 x 508 km, 81.2° (Epoch: 9 June)

Event Time Altitude Azimuth Distance (km) Brightness Sun altitude
Rises 16:39:26 0° 9° (N) 2,621 6.4 -24.9°
Reaches altitude 10° 16:41:38 10° 16° (NNE) 1,745 5.6 -24.5°
Maximum altitude 16:45:12 39° 85° (E) 802 4.1 -23.9°
Drops below altitude 10° 16:48:50 10° 154° (SSE) 1,771 5.7 -23.4°
Sets 16:51:05 0° 161° (SSE) 2,666 6.5 -23.0°
